[[{"header":{"parameterUnit":"m.s-1","parameterCategory":2,"la1":30.2991,"la2":30.254,"lo1":-89.0895,"lo2":-89.0444,"dy":0.0017,"dx":0.0017,"nx":28,"ny":28,"refTime":"2025-03-08T03:00:00:Z","depth":"0","parameterNumber":2,"parameterNumberName":"U-component_of_CURRENTS"},"data":[0,0,0,0,0,0,0,0,0,0,0,0,0,0,0,0,0,0,0,0,0,0,0,0,0,0,0,0,0,0,0,0,0,0,0,0,0,0,0,0,0,0,0,0,0,0,0,0,0,0,0,0,0,0,0,0,0,0,-0.3026,-0.3027,0,-0.3178,-0.3179,-0.3181,-0.3228,-0.3228,-0.3227,-0.3226,-0.3298,-0.3301,-0.3303,0,0,0,0,0,0,0,0,0,0,0,0,0,-0.2989,-0.2988,-0.3025,-0.3027,-0.3029,-0.3177,-0.318,-0.3182,-0.3229,-0.3228,-0.3227,-0.3226,-0.3297,-0.33,-0.3304,0,0,0,0,0,0,0,0,0,0,0,0,0,-0.306,-0.2988,-0.3025,-0.3069,-0.3075,-0.3177,-0.318,-0.3182,-0.3229,-0.3228,-0.3226,-0.3225,-0.3296,-0.33,-0.3304,-0.3355,0,0,-0.3317,-0.3318,0,0,0,0,0,0,0,0,-0.3055,-0.3061,-0.3061,-0.3066,-0.3073,-0.3182,-0.3193,-0.3236,-0.3229,-0.3172,-0.3226,-0.3224,-0.3252,-0.326,-0.3294,-0.3358,-0.3362,-0.3317,-0.3319,-0.3321,-0.3322,0,0,0,0,0,0,0,-0.305,-0.3056,-0.3087,-0.3063,-0.307,-0.3155,-0.3161,-0.3203,-0.3217,-0.3177,-0.318,-0.3195,-0.3254,-0.329,-0.3296,-0.3363,-0.3317,-0.3321,-0.3323,-0.3325,-0.3466,-0.3468,0,0,0,0,0,0,-0.3019,-0.305,-0.3082,-0.3091,-0.3059,-0.3155,-0.3163,-0.3149,-0.3218,-0.3228,-0.3196,-0.3197,-0.3284,-0.3291,-0.3298,-0.3318,-0.3321,-0.3325,-0.3327,-0.3465,-0.3467,-0.3468,0,0,0,0,0,0,-0.3017,-0.3019,-0.3076,-0.3076,-0.3088,-0.3155,-0.3141,-0.3153,-0.3178,-0.3234,-0.3242,-0.3208,-0.3283,-0.3293,-0.3342,-0.3323,-0.3327,-0.3331,-0.3463,-0.3465,-0.3467,-0.3386,0,0,0,0,0,0,-0.3015,-0.3017,-0.299,-0.3072,-0.3087,-0.3136,-0.3142,-0.3157,-0.319,-0.3192,-0.3246,-0.3253,-0.3283,-0.3336,-0.3346,-0.3328,-0.3334,-0.3462,-0.3464,-0.3467,-0.3387,-0.3385,-0.3383,0,0,0,0,0,-0.3012,-0.2988,-0.2987,-0.2992,-0.3049,-0.3137,-0.3154,-0.32,-0.3191,-0.3215,-0.3251,-0.325,-0.3358,-0.3341,-0.3352,-0.3335,-0.3461,-0.3464,-0.3466,-0.3388,-0.3386,-0.3383,0,0,0,0,0,0,-0.2952,-0.2992,-0.2994,-0.2977,-0.3048,-0.3144,-0.3164,-0.3194,-0.3245,-0.3237,-0.3275,-0.3286,-0.3319,-0.3355,-0.3334,-0.3389,-0.3407,-0.3412,-0.3343,-0.3341,-0.3339,-0.3296,-0.3337,0,0,0,0,0,-0.2925,-0.2912,-0.2986,-0.2971,-0.3004,-0.3079,-0.3114,-0.3155,-0.3214,-0.3235,-0.3278,-0.3317,-0.3346,-0.3363,-0.341,-0.3444,-0.3423,-0.3443,-0.3441,-0.3438,-0.3416,-0.3361,-0.3349,-0.3478,-0.3478,-0.3478,0,0,-0.2891,-0.2915,-0.2902,-0.2958,-0.301,-0.3076,-0.3098,-0.3157,-0.3193,-0.3234,-0.3286,-0.3315,-0.3358,-0.3394,-0.341,-0.3415,-0.3398,-0.3442,-0.3439,-0.3417,-0.3362,-0.3348,-0.3336,-0.348,-0.3479,-0.3479,0,0,-0.2875,-0.2848,-0.2864,-0.2925,-0.3008,-0.3059,-0.3071,-0.3172,-0.3191,-0.3263,-0.3277,-0.3282,-0.3382,-0.3371,-0.3383,-0.34,-0.3391,-0.3437,-0.3383,-0.333,-0.3317,-0.3305,-0.3273,-0.3259,-0.3432,-0.3432,-0.3432,0,-0.284,-0.2853,-0.2888,-0.2951,-0.298,-0.3046,-0.3094,-0.3143,-0.3244,-0.3236,-0.3274,-0.3327,-0.3355,-0.333,-0.3344,-0.3383,-0.3375,-0.3378,-0.3319,-0.3307,-0.3296,-0.3266,-0.3251,-0.3428,-0.3428,-0.3429,-0.3429,0,-0.2874,-0.2882,-0.2902,-0.2976,-0.3022,-0.3067,-0.3142,-0.3173,-0.32,-0.3236,-0.3235,-0.3274,-0.3288,-0.3302,-0.3334,-0.3271,-0.3299,-0.3317,-0.3304,-0.3276,-0.3249,-0.3235,-0.3423,-0.3424,-0.3425,-0.3426,0,0,-0.2792,-0.2898,-0.2901,-0.2922,-0.3025,-0.3061,-0.3104,-0.3138,-0.3129,-0.3197,-0.3172,-0.3198,-0.3192,-0.3205,-0.3219,-0.3177,-0.3096,-0.3221,-0.322,-0.3153,-0.2999,-0.2933,-0.2912,-0.3109,-0.3106,-0.3103,-0.3013,0,-0.2802,-0.2877,-0.2933,-0.2979,-0.3013,-0.3063,-0.3092,-0.3124,-0.3149,-0.3155,-0.3131,-0.3138,-0.3164,-0.3159,-0.3115,-0.3122,-0.3056,-0.312,-0.3068,-0.3066,-0.2979,-0.2891,-0.2761,-0.2662,-0.2999,-0.2997,-0.2995,0,-0.2817,-0.2853,-0.2899,-0.2939,-0.2957,-0.2996,-0.299,-0.3032,-0.3045,-0.3061,-0.3038,-0.3058,-0.3006,-0.3039,-0.2962,-0.3014,-0.2986,-0.2978,-0.2974,-0.2922,-0.2971,-0.2747,-0.2624,-0.261,-0.2973,-0.2975,-0.2977,0,-0.2721,-0.2811,-0.2817,-0.2845,-0.2928,-0.2922,-0.2951,-0.2981,-0.2986,-0.2987,-0.299,-0.2952,-0.2936,-0.2893,-0.2897,-0.2928,-0.2821,-0.2857,-0.2751,-0.2749,-0.2627,-0.2618,-0.2442,-0.2745,-0.2745,-0.2745,-0.2745,0,-0.2683,-0.2684,-0.2769,-0.2775,-0.2761,-0.2845,-0.2827,-0.2856,-0.2887,-0.2874,-0.2918,-0.2893,-0.29,-0.2867,-0.2858,-0.276,-0.2775,-0.2699,-0.2695,-0.2602,-0.2592,-0.257,-0.262,-0.2742,-0.2743,-0.2743,-0.2744,0,-0.2572,-0.2638,-0.2647,-0.271,-0.2722,-0.2706,-0.2762,-0.2752,-0.2805,-0.279,-0.2789,-0.2829,-0.2783,-0.2782,-0.2723,-0.269,-0.2566,-0.2575,-0.248,-0.2463,-0.2337,-0.239,-0.2232,-0.2169,-0.2418,-0.2416,-0.2413,0,-0.2516,-0.2515,-0.2568,-0.2562,-0.2585,-0.2593,-0.2598,-0.2681,-0.2688,-0.2738,-0.2718,-0.27,-0.2648,-0.2558,-0.2496,-0.2412,-0.2443,-0.2255,-0.2255,-0.2261,-0.2318,-0.2373,-0.2337,-0.2081,-0.2076,-0.2073,-0.2069,0,-0.239,-0.2415,-0.2419,-0.2416,-0.2419,-0.2427,-0.2452,-0.2455,-0.2545,-0.2548,-0.2538,-0.2504,-0.2432,-0.2293,-0.2212,-0.2156,-0.2196,-0.2171,-0.2178,-0.2013,-0.2057,-0.2019,-0.2252,-0.2035,-0.2038,-0.2041,-0.2043,-0.2044,-0.227,-0.2243,-0.2256,-0.2235,-0.2246,-0.2233,-0.2188,-0.2244,-0.2235,-0.2216,-0.2304,-0.2219,-0.2156,-0.2007,-0.195,-0.1822,-0.192,-0.1772,-0.1831,-0.1883,-0.1813,-0.1976,-0.1761,-0.1763,-0.1764,-0.1766,-0.1767,0,-0.2108,-0.2093,-0.207,-0.2044,-0.1994,-0.206,-0.2058,-0.1997,-0.1938,-0.1983,-0.195,-0.1888,-0.1742,-0.1713,-0.1601,-0.152,-0.1498,-0.1504,-0.1544,-0.1518,-0.163,-0.1604,-0.1343,-0.1343,-0.1343,-0.1343,-0.1343,-0.1343,-0.2017,-0.1937,-0.1929,-0.179,-0.1773,-0.1659,-0.1625,-0.1576,-0.1576,-0.1506,-0.1503,-0.1538,-0.1545,-0.1624,-0.1495,-0.141,-0.1404,-0.1348,-0.1415,-0.1511,-0.1541,-0.157,-0.1553,-0.1285,-0.1285,-0.1216,-0.1216,-0.1216]},{"header":{"parameterUnit":"m.s-1","parameterCategory":2,"la1":30.2991,"la2":30.254,"lo1":-89.0895,"lo2":-89.0444,"dy":0.0017,"dx":0.0017,"nx":28,"ny":28,"refTime":"2025-03-08T03:00:00:Z","depth":"0","parameterNumber":3,"parameterNumberName":"V-component_of_CURRENTS"},"data":[0,0,0,0,0,0,0,0,0,0,0,0,0,0,0,0,0,0,0,0,0,0,0,0,0,0,0,0,0,0,0,0,0,0,0,0,0,0,0,0,0,0,0,0,0,0,0,0,0,0,0,0,0,0,0,0,0,0,-0.033,-0.0329,0,-0.021,-0.0209,-0.0207,-0.0125,-0.0125,-0.0125,-0.0124,0.0109,0.0115,0.0121,0,0,0,0,0,0,0,0,0,0,0,0,0,-0.0422,-0.0421,-0.033,-0.0329,-0.0327,-0.0211,-0.0209,-0.0206,-0.0125,-0.0125,-0.0125,-0.0124,0.0107,0.0114,0.0121,0,0,0,0,0,0,0,0,0,0,0,0,0,-0.0346,-0.0421,-0.033,-0.0276,-0.027,-0.0211,-0.0208,-0.0206,-0.0125,-0.0125,-0.0125,-0.0124,0.0105,0.0113,0.0122,0.0172,0,0,0.015,0.0154,0,0,0,0,0,0,0,0,-0.0351,-0.0343,-0.0285,-0.028,-0.0273,-0.0186,-0.0156,-0.0075,-0.0125,-0.0176,-0.0124,-0.0124,0.0018,0.0034,0.0061,0.0183,0.0193,0.0151,0.0156,0.016,0.0163,0,0,0,0,0,0,0,-0.0356,-0.0347,-0.0278,-0.0284,-0.0277,-0.0236,-0.0225,-0.014,-0.0076,-0.0171,-0.0166,-0.016,0.0022,0.0051,0.0067,0.0197,0.0151,0.0159,0.0164,0.0168,0.0388,0.0388,0,0,0,0,0,0,-0.0384,-0.0352,-0.0282,-0.0275,-0.0317,-0.0235,-0.0223,-0.0211,-0.008,-0.0062,-0.016,-0.0157,0.0036,0.0056,0.0075,0.0125,0.016,0.0169,0.0174,0.0387,0.0388,0.0388,0,0,0,0,0,0,-0.0386,-0.0378,-0.0287,-0.0315,-0.0301,-0.0235,-0.0222,-0.0209,-0.0183,-0.0074,-0.0052,-0.0149,0.0037,0.0063,0.0145,0.0135,0.0173,0.0181,0.0387,0.0387,0.0388,0.0235,0,0,0,0,0,0,-0.0389,-0.038,-0.0378,-0.0316,-0.03,-0.0264,-0.0222,-0.0207,-0.0181,-0.0175,-0.0056,-0.0034,0.0039,0.0131,0.0154,0.0148,0.0188,0.0386,0.0387,0.0388,0.024,0.023,0.0222,0,0,0,0,0,-0.0393,-0.0396,-0.0378,-0.037,-0.0301,-0.0265,-0.0252,-0.0201,-0.0182,-0.0175,-0.0094,-0.0038,0.0153,0.0139,0.0166,0.0162,0.0386,0.0387,0.0388,0.0243,0.0232,0.0223,0,0,0,0,0,0,-0.0432,-0.0387,-0.0366,-0.0354,-0.0319,-0.0253,-0.0244,-0.021,-0.0142,-0.0134,-0.003,-0.0002,0.0065,0.0142,0.0123,0.0231,0.0278,0.0284,0.0159,0.015,0.0141,0.0123,0.0196,0,0,0,0,0,-0.0444,-0.0435,-0.0386,-0.0377,-0.0365,-0.0307,-0.0285,-0.0254,-0.019,-0.0161,-0.0079,0.0014,0.0092,0.014,0.0223,0.0285,0.034,0.0302,0.0294,0.0286,0.0291,0.0336,0.0331,0.0391,0.0391,0.0391,0,0,-0.0457,-0.0432,-0.0426,-0.0386,-0.0353,-0.0341,-0.0292,-0.0271,-0.0251,-0.0143,-0.0087,-0.0013,0.0102,0.0164,0.0202,0.0225,0.0299,0.0287,0.0278,0.0289,0.0336,0.033,0.0325,0.0392,0.0392,0.0392,0,0,-0.0492,-0.046,-0.047,-0.0446,-0.0412,-0.0372,-0.0373,-0.0313,-0.0278,-0.0217,-0.0142,-0.0078,0.0053,0.0118,0.0173,0.0174,0.0249,0.0202,0.0147,0.0189,0.0183,0.0179,0.0234,0.0236,0.02,0.0199,0.0199,0,-0.0514,-0.0513,-0.0468,-0.0473,-0.0458,-0.0394,-0.0401,-0.0354,-0.0273,-0.0245,-0.0215,-0.0052,0.0032,0.0105,0.01,0.0151,0.0192,0.0166,0.0173,0.017,0.0168,0.0226,0.023,0.0192,0.0193,0.0194,0.0194,0,-0.0557,-0.0553,-0.0559,-0.054,-0.0517,-0.0512,-0.0453,-0.0421,-0.0371,-0.0319,-0.0243,-0.0137,-0.004,-0.0012,0.0048,0.008,0.0118,0.0146,0.0183,0.0152,0.0216,0.0223,0.0182,0.0184,0.0186,0.0188,0,0,-0.0612,-0.0594,-0.0595,-0.0599,-0.0553,-0.0541,-0.0511,-0.0463,-0.0443,-0.0362,-0.0326,-0.0211,-0.0162,-0.0097,-0.0023,0.0013,0.0027,0.0064,0.007,0.0092,0.0125,0.0183,0.0197,0.0042,0.0043,0.0043,0.017,0,-0.0661,-0.069,-0.0659,-0.0674,-0.0682,-0.0617,-0.0593,-0.054,-0.0476,-0.0422,-0.0323,-0.0253,-0.019,-0.0153,-0.011,0.0003,0.004,-0.0009,0.0178,0.0184,0.0216,0.0205,0.0255,0.0374,0.0178,0.0179,0.018,0,-0.0716,-0.0725,-0.0757,-0.0742,-0.0739,-0.0732,-0.0685,-0.0654,-0.0563,-0.0513,-0.0436,-0.0347,-0.0259,-0.0214,-0.0054,-0.0092,0.0003,0.0082,0.0089,0.0205,0.0255,0.0381,0.0395,0.0561,0.0191,0.019,0.019,0,-0.0783,-0.0792,-0.0819,-0.0814,-0.0786,-0.0783,-0.076,-0.0687,-0.0659,-0.057,-0.0537,-0.0417,-0.0346,-0.0225,-0.0045,-0.0056,0.0128,0.0139,0.0282,0.0288,0.0404,0.0419,0.0582,0.0235,0.0235,0.0235,0.0234,0,-0.0845,-0.0865,-0.0855,-0.087,-0.0894,-0.085,-0.0853,-0.0807,-0.0743,-0.0711,-0.0592,-0.0529,-0.0351,-0.0212,-0.0066,0.0143,0.0119,0.028,0.0324,0.0354,0.0362,0.0573,0.0634,0.0239,0.0238,0.0237,0.0237,0,-0.0909,-0.0904,-0.0937,-0.0929,-0.0929,-0.0945,-0.0922,-0.0916,-0.0846,-0.0801,-0.0774,-0.0611,-0.0421,-0.0223,-0.0003,0.0126,0.0427,0.039,0.0422,0.0467,0.0737,0.0787,0.1008,0.1113,0.056,0.0562,0.0564,0,-0.0943,-0.0968,-0.0989,-0.1012,-0.1011,-0.1025,-0.1031,-0.0976,-0.096,-0.0837,-0.0815,-0.0627,-0.0464,-0.0108,0.0151,0.0426,0.0544,0.062,0.0607,0.0769,0.0857,0.0886,0.096,0.0704,0.0707,0.0709,0.0711,0,-0.0997,-0.1004,-0.1027,-0.1081,-0.1105,-0.1127,-0.1126,-0.1128,-0.1048,-0.0976,-0.0837,-0.0695,-0.0342,0.0003,0.0353,0.052,0.0752,0.0675,0.0839,0.0983,0.1032,0.1148,0.0609,0.0731,0.0729,0.0728,0.0727,0.0726,-0.1028,-0.106,-0.1092,-0.1137,-0.1174,-0.1203,-0.1206,-0.1175,-0.1123,-0.0976,-0.0849,-0.0568,-0.0113,0.04,0.0586,0.0993,0.0941,0.1114,0.1163,0.1178,0.1279,0.0787,0.0954,0.0953,0.0953,0.0952,0.0952,0,-0.1054,-0.1087,-0.1141,-0.119,-0.1234,-0.1238,-0.1243,-0.1201,-0.1115,-0.0935,-0.0748,-0.0181,0.0284,0.0705,0.1244,0.1468,0.1512,0.1578,0.1638,0.1691,0.1267,0.1273,0.1521,0.1521,0.1521,0.1521,0.1521,0.152,-0.1067,-0.1116,-0.1142,-0.1214,-0.1251,-0.1266,-0.1258,-0.1167,-0.1021,-0.0672,-0.0324,-0.004,0.0557,0.136,0.1861,0.1913,0.2104,0.2087,0.2184,0.1894,0.1854,0.1816,0.1837,0.22,0.2201,0.2606,0.261,0.2613]}],[{"header":{"parameterUnit":"m.s-1","parameterCategory":2,"la1":30.2991,"la2":30.254,"lo1":-89.0895,"lo2":-89.0444,"dy":0.0017,"dx":0.0017,"nx":28,"ny":28,"refTime":"2025-03-08T03:00:00:Z","depth":"2","parameterNumber":2,"parameterNumberName":"U-component_of_CURRENTS"},"data":[0,0,0,0,0,0,0,0,0,0,0,0,0,0,0,0,0,0,0,0,0,0,0,0,0,0,0,0,0,0,0,0,0,0,0,0,0,0,0,0,0,0,0,0,0,0,0,0,0,0,0,0,0,0,0,0,0,0,-0.2453,-0.2454,0,-0.2498,-0.2498,-0.2498,-0.2478,-0.2477,-0.2476,-0.2475,-0.2494,-0.2495,-0.2496,0,0,0,0,0,0,0,0,0,0,0,0,0,-0.2343,-0.2345,-0.2453,-0.2454,-0.2455,-0.2497,-0.2498,-0.2498,-0.2478,-0.2477,-0.2476,-0.2475,-0.2493,-0.2495,-0.2497,0,0,0,0,0,0,0,0,0,0,0,0,0,-0.2387,-0.2346,-0.2453,-0.2452,-0.2452,-0.2497,-0.2498,-0.2498,-0.2478,-0.2477,-0.2476,-0.2474,-0.2493,-0.2495,-0.2497,-0.2536,0,0,-0.2503,-0.2504,0,0,0,0,0,0,0,0,-0.2385,-0.2391,-0.2451,-0.2452,-0.2452,-0.2483,-0.2466,-0.251,-0.2479,-0.2466,-0.2475,-0.2474,-0.249,-0.2492,-0.2501,-0.2537,-0.2538,-0.2503,-0.2504,-0.2505,-0.2506,0,0,0,0,0,0,0,-0.2382,-0.2389,-0.2468,-0.2452,-0.2453,-0.2446,-0.2451,-0.2474,-0.2483,-0.2467,-0.2466,-0.2475,-0.249,-0.2499,-0.2501,-0.2538,-0.2503,-0.2505,-0.2506,-0.2507,-0.2614,-0.2616,0,0,0,0,0,0,-0.2384,-0.2387,-0.2467,-0.247,-0.2417,-0.2449,-0.2454,-0.2473,-0.2483,-0.2484,-0.2476,-0.2474,-0.2496,-0.2499,-0.2502,-0.2537,-0.2505,-0.2507,-0.2508,-0.2613,-0.2615,-0.2616,0,0,0,0,0,0,-0.2381,-0.2391,-0.2465,-0.243,-0.2439,-0.2453,-0.2473,-0.2474,-0.2481,-0.2491,-0.2491,-0.2482,-0.2495,-0.2499,-0.2528,-0.2538,-0.2508,-0.251,-0.2611,-0.2613,-0.2615,-0.2616,0,0,0,0,0,0,-0.2378,-0.239,-0.2401,-0.2431,-0.2442,-0.2497,-0.2475,-0.2476,-0.249,-0.2487,-0.2496,-0.2497,-0.2495,-0.2526,-0.253,-0.254,-0.2511,-0.2608,-0.2612,-0.2615,-0.2614,-0.2618,-0.2622,0,0,0,0,0,-0.2374,-0.2396,-0.2402,-0.2411,-0.2458,-0.2498,-0.2503,-0.2505,-0.2492,-0.2504,-0.251,-0.2496,-0.2549,-0.2529,-0.2534,-0.2544,-0.2607,-0.2611,-0.2614,-0.2612,-0.2617,-0.2621,0,0,0,0,0,0,-0.2352,-0.2397,-0.2404,-0.2437,-0.2468,-0.2495,-0.2506,-0.2511,-0.2526,-0.2521,-0.2519,-0.2521,-0.2551,-0.2559,-0.2537,-0.2589,-0.2576,-0.2581,-0.2572,-0.2577,-0.2581,-0.2563,-0.2513,0,0,0,0,0,-0.2355,-0.2379,-0.2424,-0.2447,-0.2466,-0.2487,-0.2502,-0.251,-0.2529,-0.2534,-0.2542,-0.2556,-0.2574,-0.2582,-0.2604,-0.2634,-0.2611,-0.2647,-0.2651,-0.2654,-0.2646,-0.2619,-0.2618,-0.2629,-0.2629,-0.2629,0,0,-0.2351,-0.2379,-0.2391,-0.2443,-0.2463,-0.2497,-0.2492,-0.2522,-0.254,-0.2536,-0.256,-0.2573,-0.2588,-0.2618,-0.2632,-0.2621,-0.2642,-0.2659,-0.2661,-0.2651,-0.2623,-0.2621,-0.2619,-0.2631,-0.2631,-0.263,0,0,-0.2356,-0.2383,-0.2407,-0.244,-0.2482,-0.2503,-0.2514,-0.2552,-0.2559,-0.2596,-0.2592,-0.2606,-0.2647,-0.2647,-0.2654,-0.2698,-0.2667,-0.2716,-0.2714,-0.2688,-0.2686,-0.2683,-0.2654,-0.2649,-0.2713,-0.2713,-0.2713,0,-0.2346,-0.2384,-0.2419,-0.2455,-0.2475,-0.2506,-0.2534,-0.2559,-0.2599,-0.2601,-0.2606,-0.2642,-0.2655,-0.2667,-0.2685,-0.2701,-0.2683,-0.2687,-0.2688,-0.2686,-0.2683,-0.2654,-0.2648,-0.2713,-0.2713,-0.2713,-0.2713,0,-0.2374,-0.2404,-0.2422,-0.2474,-0.2504,-0.2534,-0.2578,-0.2602,-0.2615,-0.2629,-0.265,-0.2668,-0.2679,-0.2695,-0.2704,-0.2702,-0.2694,-0.2694,-0.2664,-0.2681,-0.265,-0.2644,-0.2714,-0.2714,-0.2714,-0.2714,0,0,-0.234,-0.2423,-0.2426,-0.2445,-0.2513,-0.2536,-0.2578,-0.2612,-0.2619,-0.2654,-0.2654,-0.269,-0.2685,-0.2694,-0.2703,-0.2689,-0.2662,-0.2688,-0.2686,-0.2637,-0.26,-0.252,-0.2506,-0.2658,-0.2657,-0.2656,-0.2584,0,-0.2342,-0.2397,-0.2443,-0.2481,-0.2508,-0.2553,-0.2584,-0.2618,-0.2642,-0.2657,-0.2664,-0.2677,-0.269,-0.2691,-0.268,-0.2676,-0.2647,-0.2681,-0.261,-0.2607,-0.2516,-0.2496,-0.231,-0.2223,-0.2578,-0.2577,-0.2576,0,-0.2344,-0.2378,-0.2419,-0.2472,-0.2487,-0.2516,-0.255,-0.2585,-0.2621,-0.2638,-0.2647,-0.2659,-0.2659,-0.2662,-0.2629,-0.2651,-0.2621,-0.2608,-0.2605,-0.2522,-0.2516,-0.2266,-0.2198,-0.2566,-0.2567,-0.2568,-0.2568,0,-0.228,-0.2353,-0.2375,-0.2398,-0.2472,-0.2485,-0.2519,-0.2565,-0.2583,-0.2617,-0.2625,-0.2631,-0.2626,-0.2603,-0.2591,-0.2605,-0.2542,-0.2553,-0.2444,-0.2439,-0.2259,-0.2239,-0.2498,-0.2498,-0.2498,-0.2498,-0.2498,0,-0.2252,-0.2264,-0.2345,-0.2354,-0.2367,-0.2439,-0.2451,-0.249,-0.2538,-0.2544,-0.2599,-0.2591,-0.261,-0.2588,-0.2573,-0.2485,-0.2518,-0.2426,-0.2406,-0.2257,-0.2238,-0.2526,-0.253,-0.2496,-0.2496,-0.2497,-0.2497,0,-0.2167,-0.223,-0.2249,-0.2319,-0.2336,-0.2339,-0.2404,-0.2413,-0.2478,-0.2487,-0.2495,-0.2547,-0.2513,-0.2517,-0.2476,-0.244,-0.2384,-0.2339,-0.2165,-0.2126,-0.2302,-0.2307,-0.2199,-0.2196,-0.2193,-0.219,-0.2188,0,-0.2125,-0.2131,-0.2194,-0.2197,-0.2223,-0.225,-0.2266,-0.2356,-0.2374,-0.2443,-0.2433,-0.2433,-0.2386,-0.2313,-0.2251,-0.2173,-0.2275,-0.1972,-0.1959,-0.2275,-0.2267,-0.2278,-0.2287,-0.1725,-0.1719,-0.1715,-0.1711,0,-0.2024,-0.2052,-0.2066,-0.2079,-0.2095,-0.2114,-0.2151,-0.216,-0.2257,-0.2269,-0.2268,-0.2239,-0.2177,-0.201,-0.1935,-0.1878,-0.1976,-0.1872,-0.2218,-0.1841,-0.1824,-0.1819,-0.1844,-0.1669,-0.1673,-0.1676,-0.1679,-0.168,-0.1927,-0.1911,-0.1935,-0.1931,-0.1955,-0.195,-0.1915,-0.197,-0.1968,-0.1953,-0.2037,-0.1934,-0.1917,-0.1685,-0.1597,-0.1539,-0.1679,-0.1614,-0.1629,-0.165,-0.1619,-0.1598,-0.1395,-0.1397,-0.1399,-0.1401,-0.1403,0,-0.179,-0.1789,-0.1782,-0.1773,-0.174,-0.1803,-0.1808,-0.175,-0.1692,-0.1711,-0.1675,-0.1485,-0.1356,-0.1354,-0.1184,-0.1157,-0.1158,-0.1119,-0.1121,-0.1162,-0.1199,-0.1147,-0.0796,-0.0795,-0.0793,-0.0792,0,0,-0.1715,-0.1659,-0.1656,-0.1553,-0.1546,-0.1452,-0.1421,-0.1366,-0.1342,-0.1245,-0.1192,-0.1269,-0.1294,-0.1048,-0.0989,-0.0862,-0.1005,-0.0814,-0.1295,-0.1336,-0.1371,-0.1472,-0.1436,0,0,0,0,0]},{"header":{"parameterUnit":"m.s-1","parameterCategory":2,"la1":30.2991,"la2":30.254,"lo1":-89.0895,"lo2":-89.0444,"dy":0.0017,"dx":0.0017,"nx":28,"ny":28,"refTime":"2025-03-08T03:00:00:Z","depth":"2","parameterNumber":3,"parameterNumberName":"V-component_of_CURRENTS"},"data":[0,0,0,0,0,0,0,0,0,0,0,0,0,0,0,0,0,0,0,0,0,0,0,0,0,0,0,0,0,0,0,0,0,0,0,0,0,0,0,0,0,0,0,0,0,0,0,0,0,0,0,0,0,0,0,0,0,0,-0.0283,-0.0283,0,-0.0206,-0.0205,-0.0204,-0.0135,-0.0135,-0.0134,-0.0134,0.0024,0.0027,0.0031,0,0,0,0,0,0,0,0,0,0,0,0,0,-0.0326,-0.0325,-0.0283,-0.0282,-0.0282,-0.0206,-0.0205,-0.0203,-0.0135,-0.0135,-0.0134,-0.0133,0.0023,0.0027,0.0031,0,0,0,0,0,0,0,0,0,0,0,0,0,-0.0281,-0.0325,-0.0283,-0.0241,-0.0236,-0.0206,-0.0205,-0.0203,-0.0136,-0.0135,-0.0134,-0.0133,0.0021,0.0026,0.0032,0.0049,0,0,0.0049,0.0051,0,0,0,0,0,0,0,0,-0.0284,-0.028,-0.0248,-0.0244,-0.0239,-0.0182,-0.0162,-0.0116,-0.0136,-0.0171,-0.0134,-0.0133,-0.004,-0.0029,-0.0014,0.0057,0.0063,0.0049,0.0053,0.0055,0.0056,0,0,0,0,0,0,0,-0.0287,-0.0282,-0.025,-0.0247,-0.0241,-0.021,-0.0203,-0.0153,-0.0108,-0.0168,-0.0163,-0.0159,-0.0036,-0.002,-0.001,0.0066,0.0049,0.0054,0.0057,0.0059,0.0182,0.0182,0,0,0,0,0,0,-0.0306,-0.0286,-0.0252,-0.0248,-0.0263,-0.021,-0.0202,-0.0199,-0.011,-0.0097,-0.016,-0.0156,-0.0029,-0.0016,-0.0004,0.0029,0.0055,0.006,0.0063,0.0182,0.0182,0.0182,0,0,0,0,0,0,-0.0307,-0.0303,-0.0256,-0.0267,-0.0259,-0.0211,-0.0207,-0.0198,-0.018,-0.0105,-0.009,-0.0153,-0.0028,-0.0011,0.0035,0.0036,0.0062,0.0067,0.0182,0.0182,0.0182,0.0091,0,0,0,0,0,0,-0.0308,-0.0304,-0.0309,-0.0268,-0.0259,-0.0247,-0.0208,-0.0197,-0.018,-0.0175,-0.0094,-0.0079,-0.0026,0.0026,0.0041,0.0044,0.0072,0.0182,0.0182,0.0182,0.0094,0.0088,0.0082,0,0,0,0,0,-0.031,-0.0323,-0.0309,-0.0305,-0.0266,-0.0248,-0.0241,-0.0201,-0.0181,-0.0181,-0.0126,-0.0081,0.0036,0.003,0.0047,0.0052,0.0182,0.0182,0.0182,0.0097,0.0089,0.0082,0,0,0,0,0,0,-0.0344,-0.0316,-0.03,-0.0304,-0.0282,-0.0238,-0.0235,-0.0209,-0.0167,-0.0158,-0.0084,-0.0066,-0.0024,0.0025,0.0016,0.0088,0.0118,0.0121,0.0047,0.0041,0.0035,0.0024,0.0076,0,0,0,0,0,-0.0356,-0.0357,-0.0325,-0.0329,-0.0322,-0.028,-0.0268,-0.0244,-0.0202,-0.0183,-0.0128,-0.0065,-0.0012,0.0021,0.0072,0.0109,0.0157,0.0125,0.0119,0.0114,0.0117,0.0179,0.0179,0.0181,0.0181,0.0181,0,0,-0.0371,-0.0356,-0.0356,-0.0337,-0.0315,-0.0312,-0.027,-0.026,-0.0249,-0.0172,-0.014,-0.0087,-0.0009,0.0031,0.0055,0.0074,0.0136,0.0114,0.0108,0.0115,0.0179,0.0178,0.0178,0.0181,0.0181,0.0181,0,0,-0.0409,-0.0389,-0.0405,-0.039,-0.0369,-0.0342,-0.0344,-0.0305,-0.0278,-0.0247,-0.0186,-0.0135,-0.006,-0.0001,0.0039,0.0034,0.0098,0.0049,0.0019,0.0078,0.0078,0.0079,0.0125,0.0131,0.0052,0.0052,0.0052,0,-0.0429,-0.0439,-0.0407,-0.0417,-0.0408,-0.0361,-0.0372,-0.0341,-0.029,-0.0264,-0.0249,-0.013,-0.0071,-0.0004,-0.0008,0.0022,0.0059,0.0035,0.0069,0.0071,0.0074,0.0121,0.0128,0.0048,0.0048,0.0049,0.0049,0,-0.0476,-0.048,-0.0489,-0.0482,-0.0469,-0.0471,-0.0428,-0.0408,-0.0371,-0.033,-0.0267,-0.019,-0.0114,-0.0091,-0.0051,-0.0001,0.002,0.0047,0.0081,0.0068,0.0119,0.0128,0.0041,0.0043,0.0044,0.0045,0,0,-0.0529,-0.0524,-0.0526,-0.053,-0.0501,-0.0497,-0.0478,-0.044,-0.0418,-0.0362,-0.0324,-0.0237,-0.0189,-0.0141,-0.0079,-0.0029,0.0012,0.0007,0.0012,0.0042,0.0131,0.0159,0.0172,0.004,0.0041,0.0042,0.0154,0,-0.0574,-0.0608,-0.0586,-0.0607,-0.0617,-0.0565,-0.0549,-0.0505,-0.0454,-0.0406,-0.0313,-0.0256,-0.0208,-0.0174,-0.0116,-0.0017,0.0034,-0.0022,0.015,0.0155,0.0173,0.0184,0.0157,0.0256,0.0164,0.0166,0.0167,0,-0.0627,-0.0639,-0.0673,-0.0661,-0.066,-0.0661,-0.0617,-0.0597,-0.0512,-0.0469,-0.0392,-0.0318,-0.0224,-0.019,-0.0027,-0.0068,0.0022,0.0095,0.0101,0.0169,0.0201,0.026,0.0277,0.0183,0.0182,0.0181,0.018,0,-0.0682,-0.0696,-0.0724,-0.0722,-0.0704,-0.07,-0.0683,-0.0617,-0.0592,-0.0506,-0.0474,-0.0352,-0.0288,-0.0162,-0.0007,-0.0017,0.0167,0.0179,0.0291,0.0294,0.0328,0.0332,0.0292,0.0292,0.0292,0.0292,0.0291,0,-0.0736,-0.0756,-0.0754,-0.0768,-0.079,-0.0755,-0.0755,-0.0715,-0.0654,-0.0621,-0.0512,-0.0452,-0.028,-0.0149,-0.0016,0.017,0.017,0.0292,0.033,0.0295,0.0294,0.028,0.0277,0.0296,0.0295,0.0294,0.0293,0,-0.079,-0.0791,-0.0822,-0.0819,-0.082,-0.0835,-0.0816,-0.0808,-0.0743,-0.0697,-0.0671,-0.0521,-0.0348,-0.0167,0.0048,0.0161,0.0334,0.04,0.034,0.0369,0.0419,0.041,0.0531,0.0533,0.0535,0.0536,0.0537,0,-0.0821,-0.0845,-0.0867,-0.089,-0.0892,-0.0906,-0.0912,-0.0861,-0.0844,-0.0729,-0.0706,-0.0537,-0.0393,-0.0071,0.0151,0.0395,0.0395,0.0504,0.0487,0.0421,0.0446,0.0434,0.0423,0.0493,0.0494,0.0494,0.0495,0,-0.0869,-0.0877,-0.09,-0.0952,-0.0976,-0.0995,-0.0995,-0.0995,-0.0921,-0.0853,-0.0727,-0.0604,-0.0301,-0.0033,0.0268,0.0407,0.0461,0.0525,0.0496,0.0431,0.0394,0.0415,0.0404,0.05,0.05,0.0499,0.0499,0.0499,-0.0897,-0.0928,-0.096,-0.1003,-0.1039,-0.1066,-0.1069,-0.104,-0.0991,-0.0859,-0.0747,-0.0515,-0.029,0.016,0.0359,0.0545,0.0541,0.0592,0.0587,0.0582,0.0551,0.0519,0.0643,0.0643,0.0643,0.0644,0.0644,0,-0.0922,-0.0955,-0.1006,-0.1055,-0.1096,-0.1101,-0.1104,-0.1067,-0.099,-0.0838,-0.0677,-0.0377,-0.008,0.0164,0.0462,0.0627,0.0605,0.0653,0.0587,0.0581,0.0576,0.0542,0.0634,0.0634,0.0635,0.0635,0,0,-0.0935,-0.0983,-0.1008,-0.108,-0.1117,-0.1136,-0.113,-0.1047,-0.0925,-0.0748,-0.0559,-0.0334,-0.0046,0.0162,0.0357,0.0508,0.0502,0.0522,0.0514,0.0407,0.04,0.0526,0.0466,0,0,0,0,0]}],[{"header":{"parameterUnit":"m.s-1","parameterCategory":2,"la1":30.2991,"la2":30.254,"lo1":-89.0895,"lo2":-89.0444,"dy":0.0017,"dx":0.0017,"nx":28,"ny":28,"refTime":"2025-03-08T03:00:00:Z","depth":"4","parameterNumber":2,"parameterNumberName":"U-component_of_CURRENTS"},"data":[0,0,0,0,0,0,0,0,0,0,0,0,0,0,0,0,0,0,0,0,0,0,0,0,0,0,0,0,0,0,0,0,0,0,0,0,0,0,0,0,0,0,0,0,0,0,0,0,0,0,0,0,0,0,0,0,0,0,-0.1677,-0.1678,0,-0.1727,-0.1727,-0.1727,-0.1751,-0.1751,-0.1751,-0.1752,-0.1797,-0.1798,-0.1799,0,0,0,0,0,0,0,0,0,0,0,0,0,-0.1559,-0.1561,-0.1677,-0.1678,-0.1679,-0.1727,-0.1727,-0.1728,-0.1751,-0.1751,-0.1751,-0.1752,-0.1796,-0.1797,-0.1799,0,0,0,0,0,0,0,0,0,0,0,0,0,-0.1607,-0.1561,-0.1677,-0.1699,-0.1701,-0.1727,-0.1727,-0.1728,-0.1751,-0.1751,-0.1752,-0.1752,-0.1796,-0.1797,-0.1799,-0.1801,0,0,-0.1803,-0.1804,0,0,0,0,0,0,0,0,-0.1604,-0.1611,-0.1695,-0.1697,-0.17,-0.1735,-0.1702,-0.1753,-0.1751,-0.1729,-0.1752,-0.1752,-0.1777,-0.178,-0.1785,-0.1803,-0.1805,-0.1804,-0.1804,-0.1805,-0.1805,0,0,0,0,0,0,0,-0.1601,-0.1609,-0.1694,-0.1695,-0.1699,-0.169,-0.1698,-0.1711,-0.1748,-0.1731,-0.1734,-0.1743,-0.1778,-0.1784,-0.1786,-0.1806,-0.1803,-0.1805,-0.1806,-0.1806,-0.1909,-0.1911,0,0,0,0,0,0,-0.1603,-0.1606,-0.1693,-0.1696,-0.1655,-0.1693,-0.1701,-0.1722,-0.1749,-0.1754,-0.1743,-0.1744,-0.1781,-0.1785,-0.1788,-0.1861,-0.1805,-0.1806,-0.1807,-0.1907,-0.191,-0.1912,0,0,0,0,0,0,-0.16,-0.161,-0.1691,-0.1653,-0.1663,-0.1695,-0.1718,-0.1722,-0.1755,-0.1758,-0.1763,-0.1775,-0.1781,-0.1786,-0.1832,-0.1861,-0.1807,-0.1808,-0.1905,-0.1908,-0.1911,-0.1964,0,0,0,0,0,0,-0.1597,-0.1609,-0.1639,-0.1654,-0.1666,-0.1726,-0.1718,-0.1723,-0.176,-0.1763,-0.1786,-0.1789,-0.1782,-0.183,-0.1834,-0.1862,-0.181,-0.1903,-0.1907,-0.191,-0.196,-0.1968,-0.1975,0,0,0,0,0,-0.1592,-0.1625,-0.164,-0.1651,-0.1701,-0.1727,-0.1733,-0.1753,-0.1762,-0.1783,-0.1805,-0.179,-0.1854,-0.1833,-0.1837,-0.1866,-0.1901,-0.1906,-0.191,-0.1956,-0.1967,-0.1975,0,0,0,0,0,0,-0.1588,-0.1632,-0.1648,-0.1694,-0.1719,-0.1733,-0.1759,-0.1771,-0.1804,-0.1816,-0.1815,-0.182,-0.1868,-0.1866,-0.1842,-0.1908,-0.1875,-0.188,-0.1909,-0.1919,-0.1927,-0.1919,-0.1811,0,0,0,0,0,-0.1602,-0.1641,-0.1672,-0.171,-0.1728,-0.175,-0.1769,-0.1784,-0.1808,-0.1824,-0.1842,-0.1863,-0.1883,-0.1902,-0.1917,-0.1956,-0.1933,-0.1978,-0.1986,-0.1992,-0.199,-0.199,-0.1996,-0.1925,-0.1925,-0.1925,0,0,-0.1612,-0.1641,-0.1665,-0.1713,-0.1735,-0.1762,-0.1763,-0.1802,-0.1828,-0.1823,-0.1877,-0.1892,-0.1901,-0.1942,-0.1964,-0.1948,-0.2001,-0.1997,-0.2003,-0.1997,-0.1995,-0.2001,-0.2007,-0.1928,-0.1928,-0.1927,0,0,-0.163,-0.1678,-0.1709,-0.1735,-0.1778,-0.1793,-0.1812,-0.1846,-0.1871,-0.1918,-0.1923,-0.1961,-0.1995,-0.2007,-0.2014,-0.2077,-0.204,-0.2087,-0.2122,-0.2122,-0.2127,-0.2131,-0.2105,-0.2106,-0.2093,-0.2093,-0.2093,0,-0.1641,-0.1683,-0.1721,-0.1749,-0.1775,-0.181,-0.1839,-0.1868,-0.1915,-0.1938,-0.1945,-0.2006,-0.2021,-0.206,-0.2087,-0.2093,-0.2077,-0.2083,-0.213,-0.2134,-0.2137,-0.2108,-0.2109,-0.2096,-0.2096,-0.2095,-0.2095,0,-0.1664,-0.171,-0.1731,-0.1781,-0.1814,-0.1849,-0.189,-0.1934,-0.197,-0.1991,-0.2051,-0.2075,-0.2106,-0.2124,-0.2127,-0.2167,-0.2142,-0.2136,-0.21,-0.2147,-0.2114,-0.2114,-0.21,-0.2099,-0.2098,-0.2098,0,0,-0.1647,-0.1732,-0.1741,-0.177,-0.1836,-0.186,-0.192,-0.1972,-0.2009,-0.2061,-0.21,-0.2153,-0.2168,-0.2179,-0.2191,-0.2203,-0.222,-0.2188,-0.2187,-0.2149,-0.2202,-0.2053,-0.2038,-0.2222,-0.2223,-0.2223,-0.2166,0,-0.1652,-0.1709,-0.1754,-0.181,-0.1841,-0.1899,-0.1947,-0.2002,-0.205,-0.2099,-0.2136,-0.2177,-0.2187,-0.221,-0.2227,-0.2226,-0.2224,-0.2235,-0.2172,-0.2169,-0.2021,-0.2034,-0.2225,-0.2165,-0.2165,-0.2165,-0.2165,0,-0.1646,-0.1689,-0.1748,-0.1826,-0.1847,-0.189,-0.1972,-0.2019,-0.2093,-0.213,-0.2179,-0.2203,-0.2245,-0.2241,-0.2249,-0.2255,-0.2234,-0.2223,-0.222,-0.206,-0.2019,-0.2112,-0.2164,-0.2164,-0.2164,-0.2164,-0.2164,0,-0.1593,-0.1679,-0.1729,-0.1757,-0.1851,-0.1896,-0.195,-0.203,-0.2069,-0.2151,-0.2177,-0.2227,-0.2247,-0.2247,-0.2237,-0.2246,-0.222,-0.2223,-0.206,-0.2049,-0.2177,-0.2173,-0.221,-0.221,-0.221,-0.221,-0.221,0,-0.156,-0.1601,-0.1716,-0.1737,-0.1794,-0.1875,-0.1937,-0.1998,-0.2078,-0.2105,-0.2187,-0.2196,-0.2252,-0.2245,-0.2234,-0.2133,-0.2212,-0.2053,-0.2022,-0.2201,-0.2201,-0.2176,-0.2172,-0.2208,-0.2209,-0.2209,-0.2209,0,-0.1481,-0.1562,-0.1619,-0.1732,-0.1769,-0.1808,-0.1916,-0.1949,-0.2043,-0.2079,-0.2103,-0.2173,-0.2151,-0.2172,-0.2159,-0.2097,-0.204,-0.1983,-0.2155,-0.2138,-0.1868,-0.1869,-0.1786,-0.178,-0.1775,-0.1771,-0.1768,0,-0.1441,-0.1466,-0.1591,-0.1623,-0.1678,-0.1755,-0.1797,-0.1913,-0.1942,-0.2035,-0.2029,-0.2053,-0.2075,-0.1923,-0.1975,-0.1912,-0.1895,-0.1855,-0.1877,-0.1845,-0.1825,-0.1833,-0.184,-0.176,-0.1759,-0.1757,-0.1756,0,-0.1351,-0.1414,-0.146,-0.1527,-0.1586,-0.1636,-0.1708,-0.1713,-0.1825,-0.1931,-0.1887,-0.1863,-0.1826,-0.1805,-0.1762,-0.173,-0.1882,-0.1804,-0.1814,-0.1834,-0.1813,-0.1799,-0.1812,-0.1739,-0.1741,-0.1743,-0.1744,0,-0.1279,-0.129,-0.1362,-0.1403,-0.1475,-0.1485,-0.1544,-0.1567,-0.1606,-0.172,-0.1696,-0.1727,-0.1794,-0.1707,-0.1676,-0.1622,-0.16,-0.156,-0.1583,-0.1602,-0.157,-0.1518,-0.1313,0,0,0,0,0,-0.1195,-0.1193,-0.1227,-0.1266,-0.1334,-0.1369,-0.1465,-0.1529,-0.1641,-0.1558,-0.1621,-0.1579,-0.1519,-0.1545,-0.1446,-0.1593,-0.1611,-0.1473,-0.1579,-0.1645,-0.1664,-0.1646,0,0,0,0,0,0,-0.1137,-0.1167,-0.1178,-0.1141,-0.114,-0.1191,-0.1244,-0.1325,-0.1293,-0.1411,-0.1381,-0.1474,-0.1436,-0.1532,-0.1406,-0.1413,-0.1445,-0.1507,-0.1503,-0.1634,-0.1651,-0.1667,-0.1655,0,0,0,0,0]},{"header":{"parameterUnit":"m.s-1","parameterCategory":2,"la1":30.2991,"la2":30.254,"lo1":-89.0895,"lo2":-89.0444,"dy":0.0017,"dx":0.0017,"nx":28,"ny":28,"refTime":"2025-03-08T03:00:00:Z","depth":"4","parameterNumber":3,"parameterNumberName":"V-component_of_CURRENTS"},"data":[0,0,0,0,0,0,0,0,0,0,0,0,0,0,0,0,0,0,0,0,0,0,0,0,0,0,0,0,0,0,0,0,0,0,0,0,0,0,0,0,0,0,0,0,0,0,0,0,0,0,0,0,0,0,0,0,0,0,-0.0217,-0.0216,0,-0.0177,-0.0176,-0.0176,-0.0132,-0.0132,-0.0131,-0.0131,-0.0034,-0.0032,-0.003,0,0,0,0,0,0,0,0,0,0,0,0,0,-0.023,-0.023,-0.0217,-0.0216,-0.0216,-0.0177,-0.0176,-0.0175,-0.0132,-0.0132,-0.0131,-0.0131,-0.0035,-0.0033,-0.003,0,0,0,0,0,0,0,0,0,0,0,0,0,-0.0209,-0.023,-0.0217,-0.0191,-0.0189,-0.0177,-0.0176,-0.0175,-0.0133,-0.0132,-0.0131,-0.0131,-0.0036,-0.0033,-0.003,-0.0024,0,0,-0.002,-0.0018,0,0,0,0,0,0,0,0,-0.0211,-0.0209,-0.0195,-0.0193,-0.019,-0.016,-0.0146,-0.0122,-0.0133,-0.0152,-0.0131,-0.013,-0.0073,-0.0067,-0.0059,-0.0019,-0.0015,-0.002,-0.0018,-0.0016,-0.0015,0,0,0,0,0,0,0,-0.0212,-0.021,-0.0199,-0.0195,-0.0192,-0.0173,-0.0169,-0.0141,-0.0114,-0.015,-0.0147,-0.0146,-0.0071,-0.0062,-0.0056,-0.0014,-0.002,-0.0017,-0.0015,-0.0014,0.0046,0.0046,0,0,0,0,0,0,-0.0223,-0.0212,-0.0201,-0.0198,-0.0201,-0.0174,-0.0169,-0.0169,-0.0116,-0.0108,-0.0147,-0.0144,-0.0068,-0.006,-0.0053,-0.0037,-0.0016,-0.0013,-0.0011,0.0047,0.0046,0.0046,0,0,0,0,0,0,-0.0223,-0.0222,-0.0202,-0.0205,-0.0201,-0.0174,-0.0174,-0.0169,-0.0161,-0.0114,-0.0105,-0.0145,-0.0067,-0.0057,-0.0033,-0.0033,-0.0012,-0.0009,0.0047,0.0047,0.0046,-0.0009,0,0,0,0,0,0,-0.0224,-0.0223,-0.0229,-0.0206,-0.0202,-0.0204,-0.0175,-0.0169,-0.0162,-0.0159,-0.011,-0.01,-0.0066,-0.0038,-0.003,-0.0028,-0.0006,0.0047,0.0047,0.0046,-0.0007,-0.0011,-0.0015,0,0,0,0,0,-0.0224,-0.0238,-0.0229,-0.0228,-0.021,-0.0205,-0.0201,-0.0178,-0.0163,-0.0167,-0.0133,-0.0102,-0.0036,-0.0036,-0.0026,-0.0023,0.0048,0.0047,0.0046,-0.0005,-0.001,-0.0015,0,0,0,0,0,0,-0.0247,-0.0234,-0.0224,-0.0233,-0.0224,-0.0199,-0.0202,-0.0185,-0.0162,-0.0157,-0.0108,-0.0096,-0.0076,-0.0045,-0.0047,-0.0009,0.0012,0.0013,-0.003,-0.0035,-0.0039,-0.0041,-0.0004,0,0,0,0,0,-0.0256,-0.0262,-0.0246,-0.0254,-0.0251,-0.0228,-0.0223,-0.0209,-0.0186,-0.0175,-0.0142,-0.0104,-0.0072,-0.0051,-0.0023,-0.0002,0.0039,0.0006,0.0002,-0.0002,0.0003,0.0066,0.0068,0.0043,0.0043,0.0043,0,0,-0.0269,-0.0262,-0.0266,-0.026,-0.0249,-0.0254,-0.0223,-0.0223,-0.0221,-0.0168,-0.0156,-0.0122,-0.0072,-0.005,-0.0037,-0.0023,0.0023,-0.0003,-0.0006,0.0001,0.0066,0.0068,0.0071,0.0043,0.0043,0.0043,0,0,-0.03,-0.029,-0.0307,-0.0302,-0.0294,-0.0279,-0.0283,-0.0263,-0.0247,-0.0236,-0.0193,-0.0157,-0.012,-0.0074,-0.0047,-0.0057,-0.0006,-0.0054,-0.0068,-0.0008,-0.0005,-0.0002,0.0039,0.0046,-0.005,-0.005,-0.005,0,-0.0316,-0.0329,-0.0311,-0.0324,-0.0323,-0.0294,-0.0308,-0.0292,-0.0266,-0.0247,-0.0242,-0.0165,-0.0126,-0.0074,-0.0079,-0.0064,-0.0031,-0.0054,-0.0012,-0.0008,-0.0004,0.0037,0.0046,-0.0052,-0.0052,-0.0052,-0.0052,0,-0.0356,-0.0366,-0.0376,-0.0379,-0.0376,-0.0385,-0.036,-0.0351,-0.0331,-0.0303,-0.026,-0.0207,-0.0154,-0.0139,-0.0113,-0.0063,-0.0052,-0.003,0.0,-0.0005,0.0038,0.0049,-0.0056,-0.0055,-0.0055,-0.0054,0,0,-0.0391,-0.0402,-0.0406,-0.0413,-0.0404,-0.0406,-0.04,-0.0378,-0.0363,-0.0329,-0.0299,-0.024,-0.0201,-0.0168,-0.0122,-0.0069,-0.0019,-0.0045,-0.004,-0.0005,0.01,0.0077,0.0087,0.0008,0.001,0.0012,0.0113,0,-0.0427,-0.0464,-0.0455,-0.0481,-0.0493,-0.0462,-0.0458,-0.043,-0.0397,-0.0362,-0.0288,-0.0248,-0.0214,-0.0188,-0.013,-0.0047,0.0007,-0.0049,0.0101,0.0106,0.0086,0.0098,0.0017,0.0121,0.0123,0.0125,0.0126,0,-0.0467,-0.0484,-0.0521,-0.0523,-0.0524,-0.0536,-0.051,-0.0501,-0.0438,-0.0408,-0.0345,-0.0288,-0.0204,-0.018,-0.0031,-0.0071,0.0008,0.0073,0.0079,0.0087,0.0102,0.0133,0.0145,0.0144,0.0142,0.0141,0.014,0,-0.05,-0.0526,-0.0556,-0.056,-0.0561,-0.0566,-0.0562,-0.0517,-0.0501,-0.0433,-0.0408,-0.0302,-0.025,-0.0134,-0.0007,-0.0016,0.0155,0.0165,0.0224,0.0223,0.0237,0.0233,0.0278,0.0278,0.0278,0.0278,0.0277,0,-0.0533,-0.0557,-0.0578,-0.0594,-0.0623,-0.0606,-0.0616,-0.059,-0.0546,-0.052,-0.0435,-0.0384,-0.0237,-0.0124,-0.0008,0.0134,0.0161,0.0226,0.0253,0.0208,0.02,0.0244,0.0239,0.0281,0.0281,0.028,0.0279,0,-0.056,-0.0577,-0.0614,-0.0632,-0.0643,-0.0663,-0.0667,-0.0663,-0.0618,-0.0581,-0.0561,-0.0439,-0.0296,-0.0145,0.0048,0.0124,0.0269,0.0317,0.0247,0.0268,0.0295,0.0285,0.0387,0.0388,0.0388,0.0388,0.0388,0,-0.0576,-0.0601,-0.0649,-0.0678,-0.0693,-0.072,-0.0735,-0.0706,-0.0692,-0.0606,-0.0583,-0.045,-0.0355,-0.0095,0.0052,0.0267,0.0296,0.0359,0.0335,0.0293,0.0309,0.0299,0.029,0.0388,0.0388,0.0388,0.0388,0,-0.0598,-0.0622,-0.0651,-0.0717,-0.0753,-0.0782,-0.0795,-0.0789,-0.0739,-0.0703,-0.0578,-0.044,-0.0283,-0.0094,0.0068,0.0224,0.0309,0.0361,0.0361,0.034,0.0295,0.0309,0.03,0.0389,0.0389,0.0389,0.0389,0,-0.0612,-0.0642,-0.069,-0.0739,-0.0794,-0.0821,-0.0827,-0.079,-0.0763,-0.0658,-0.0619,-0.0435,-0.0329,-0.0115,0.0041,0.0181,0.0211,0.0247,0.0254,0.0255,0.0178,0.01,0.0164,0,0,0,0,0,-0.0616,-0.065,-0.0706,-0.0759,-0.0814,-0.0839,-0.0852,-0.0842,-0.0797,-0.071,-0.0657,-0.0499,-0.0261,-0.0152,-0.0014,0.0021,0.0214,0.0183,0.0252,0.0392,0.0391,0.0321,0,0,0,0,0,0,-0.062,-0.0674,-0.0701,-0.0761,-0.0801,-0.0849,-0.0859,-0.0831,-0.0767,-0.0703,-0.0567,-0.0482,-0.0247,-0.0336,-0.0014,0.0027,0.0084,0.0302,0.0304,0.0392,0.0391,0.0391,0.0318,0,0,0,0,0]}]]